This is the latest recevied weather packets stored in our database for station/object C31FR-13. If no packets are shown the sender has not sent any weather packets the latest 10 day(s).
| Time | Temp. | Humidity | Pressure | Rain* | Wind** | Luminosity | Snow |
|---|---|---|---|---|---|---|---|
| 1777652762 | 17.22° C | 58% | 1022.3 hPa | - | - | - | - |
| 1777652462 | 17.22° C | 56% | 1022.3 hPa | - | - | - | - |
| 1777652162 | 17.22° C | 58% | 1022.2 hPa | - | - | - | - |
| 1777651863 | 17.22° C | 57% | 1022.2 hPa | - | - | - | - |
| 1777651563 | 17.78° C | 54% | 1022.2 hPa | - | - | - | - |
| 1777650663 | 17.78° C | 58% | 1022.1 hPa | - | - | - | - |
| 1777650362 | 17.78° C | 56% | 1022 hPa | - | - | - | - |
| 1777650064 | 18.33° C | 56% | 1022 hPa | - | - | - | - |
| 1777649762 | 18.33° C | 53% | 1021.8 hPa | - | - | - | - |
| 1777649462 | 18.89° C | 54% | 1021.8 hPa | - | - | - | - |
| 1777649162 | 18.89° C | 53% | 1021.7 hPa | - | - | - | - |
| 1777648863 | 18.89° C | 52% | 1021.6 hPa | - | - | - | - |
| 1777648562 | 18.89° C | 51% | 1021.7 hPa | - | - | - | - |
| 1777648262 | 19.44° C | 51% | 1021.5 hPa | - | - | - | - |
| 1777647662 | 19.44° C | 51% | 1021.3 hPa | - | - | - | - |
| 1777647362 | 19.44° C | 52% | 1021.1 hPa | - | - | - | - |
| 1777646463 | 19.44° C | 52% | 1021.1 hPa | - | - | - | - |
| 1777646161 | 18.89° C | 53% | 1021.2 hPa | - | - | - | - |
| 1777645862 | 18.33° C | 54% | 1021.3 hPa | - | - | - | - |
| 1777645263 | 18.89° C | 54% | 1021.3 hPa | - | - | - | - |
| 1777644963 | 18.33° C | 55% | 1021.4 hPa | - | - | - | - |
| 1777644662 | 18.33° C | 56% | 1021.4 hPa | - | - | - | - |
| 1777644363 | 18.33° C | 57% | 1021.4 hPa | - | - | - | - |
| 1777644063 | 18.33° C | 57% | 1021.4 hPa | - | - | - | - |
| 1777643163 | 17.78° C | 65% | 1021.5 hPa | - | - | - | - |
* Rain since midnight (hover to see other rain measurements)
** Current wind speed in m/s (hover to see current wind gust speed)